Regional Weather Roundup
Issued by NWS

Home | Current Version | Previous Version | Graphics & Text | Print | Product List | Glossary On
Versions: 1 2 3 4 5 6 7 8 9 10 11 12 13 14 15 16 17 18 19 20 21 22 23 24 25 26 27 28 29 30 31 32 33 34 35 36 37 38 39 40 41 42 43 44 45 46 47 48 49 50
000
ASUS43 KIND 191909
RWRIN

WEATHER ROUNDUP FOR INDIANA
NATIONAL WEATHER SERVICE INDIANAPOLIS IN
300 PM EDT FRI SEP 19 2014

NOTE: "FAIR" INDICATES FEW OR NO CLOUDS BELOW 12,000 FEET WITH NO
SIGNIFICANT WEATHER AND/OR OBSTRUCTIONS TO VISIBILITY.

* - STATION DOES NOT REPORT WEATHER SUCH AS PRECIPITATION OR FOG.

+ - STATION NOT QUALITY CONTROLLED BY THE NATIONAL WEATHER SERVICE.
    USE DATA WITH CAUTION...ESPECIALLY DEWPOINT AND RELATIVE
    HUMIDITY OBSERVATIONS.

INZ001>003-010>013-019-020-192000-
NORTHWEST INDIANA

CITY           SKY/WX    TMP DP  RH WIND       PRES   REMARKS
KNOX *+        SUNNY     72  46  39 S12G17    30.13S
LA PORTE +     SUNNY     70  47  44 SE7       30.14F
MICHIGAN CITY+ SUNNY     72  45  37 SE7G16    30.12F
MONTICELLO +   SUNNY     71  47  41 S7        30.12F
VALPARAISO     SUNNY     73  46  38 S10       30.12F

$$

LMZ046-743>745-192000-
SOUTHERN LAKE MICHIGAN

STATION/POSITION TIME  TEMP WIND        PRES
                       AIR  DIR/SP/G
                 (UTC) (F)  (DEG/KT/KT) (MB)
MICHIGAN CITY    1900   69  160/ 14/ 20   N/A

$$

INZ004-005-014>016-021>024-192000-
NORTH CENTRAL INDIANA

CITY           SKY/WX    TMP DP  RH WIND       PRES   REMARKS
GOSHEN         SUNNY     71  50  47 S13       30.15F
LOGANSPORT +   SUNNY     72  43  35 E13       30.14F
PERU/GRISSOM   SUNNY     72  51  47 SE13      30.13F
ROCHESTER +    SUNNY     73  46  38 SE9       30.14F
SOUTH BEND     SUNNY     73  48  41 S14G22    30.14F
WARSAW +       MOSUNNY   70  48  46 S7        30.15F

$$

INZ006>009-017-018-025>027-192000-
NORTHEAST INDIANA

CITY           SKY/WX    TMP DP  RH WIND       PRES   REMARKS
ANGOLA *+      SUNNY     70  50  49 S8        30.15F
AUBURN +       MOSUNNY   70  45  40 SW3       30.17F
FORT WAYNE     PTSUNNY   69  49  48 E9        30.17F
HUNTINGTON +   MOSUNNY   69  50  49 S6        30.15F

$$

INZ028-029-035-036-043>045-051>053-192000-
WEST CENTRAL INDIANA

CITY           SKY/WX    TMP DP  RH WIND       PRES   REMARKS
GREENCASTLE +  SUNNY     72  50  46 S9G16     30.12F
LAFAYETTE      SUNNY     71  45  39 S7        30.12F
TERRE HAUTE    SUNNY     74  49  41 SE12G17   30.11F

$$

INZ030>032-037>040-046>048-054>057-064-065-192000-
CENTRAL INDIANA

CITY           SKY/WX    TMP DP  RH WIND       PRES   REMARKS
CP ATTERBURY + SUNNY     72  48  43 SE6       30.13F
COLUMBUS       SUNNY     73  46  38 E7        30.13F
FRANKFORT +    SUNNY     74  46  36 SE10G20   30.14F
GREENWOOD *+   SUNNY     73  52  46 E6        30.15S
INDIANAPOLIS   MOSUNNY   72  46  39 E10       30.13F
-EAGLE CREEK   SUNNY     73  46  38 VRB7      30.13F
KOKOMO *+      SUNNY     72  48  43 S8        30.13F
MARION +       SUNNY     70  43  37 SE7       30.15F
MT COMFORT *+  SUNNY     73  30  20 SE8       30.15S
SHELBYVILLE    SUNNY     75  46  35 E9G16     30.13F
ZIONSVILLE +   SUNNY     72  44  36 SE10      30.15F

$$

INZ033-034-041-042-049-050-058-059-192000-
EAST CENTRAL INDIANA

CITY           SKY/WX    TMP DP  RH WIND       PRES   REMARKS
MUNCIE         SUNNY     71  28  20 E8        30.15F

$$

INZ060-061-067>069-081>083-085>088-192000-
SOUTHWEST INDIANA

CITY           SKY/WX    TMP DP  RH WIND       PRES   REMARKS
EVANSVILLE     SUNNY     77  53  43 E8        30.07F
WASHINGTON +   SUNNY     76  51  42 E6        30.10S

$$

INZ062-063-066-070>080-084-089>092-192000-
SOUTH CENTRAL AND SOUTHEAST INDIANA

CITY           SKY/WX    TMP DP  RH WIND       PRES   REMARKS
BEDFORD +      SUNNY     73  46  38 E7        30.11
BLOOMINGTON    SUNNY     72  49  44 SE8       30.13F

$$



USA.gov is the U.S. government's official web portal to all federal, state and local government web resources and services.